RESURS O1 DEB, 23346

Orbit data source: Space-Track

RESURS O1 DEB, 23346 is space debris in SSO originally from a launch on Fri, 04 Nov 1994 UTC launched from the Tyuratam Missile And Space Complex (TTMTR). Debris objects in space refer to the collection of defunct objects orbiting the Earth. Examples of debris include non-operational satellites, rocket bodies, and fragments generated from explosions, collisions, or faulty payload assembly.

Loading next visibility...
Identifier
23346, 1994-074E
Orbit
SSO
Country
Flag of CISCIS
Related business
Manufacturer
Yuzhnoe
Mission
Spacecraft
Bus & Motor
SEP MOTOR COVER, Unknown motor
Mass
~0 kg wet, ~1 kg dry
Launch date (UTC)
1994-11-04 (32 years ago)
Launch vehicle
Unknown
Launch site
Tyuratam Missile And Space Complex (TTMTR)
Object type
Payload
Rocket body
Debris
Shape & HBR
Unknown
Radar Cross Section
Medium (>0.1 m² and <1 m²)

Expand to show TLE details & history
Last TLE update: 1 day ago

TLE from 1 day ago
0 RESURS O1 DEB
1 23346U 94074E   26165.52302244  .00000679  00000-0  20205-3 0  9998
2 23346  98.4704 263.9619 0170540  89.8598 272.2130 14.38228204650789
Epoch: 2026-06-14T12:33Z
TLE epoch observation values (Epoch: 2026-06-14T12:33:09.138Z)
Latitude
-0.00006°
Longitude
172.85129°
Altitude
764.679 km
Speed
7.473 km/s
True Right ascension
17h 35m 50s
True Declination
0° 00' 00"
Sunlit
Object was in full shadow at epoch
Visualization orbit readout
Latitude
Unknown
Longitude
Unknown
Altitude
Unknown
Speed
Unknown
Apparent Right ascension
Unknown
Apparent Declination
Unknown
Sunlit
N/A
Visualization observer readout
Local Sidereal Time
01:24:02
Azimuth
Unknown
Elevation
Unknown
Doppler factor
Unknown
Orbital elements
Apogee altitude
883.239 km
Perigee altitude
639.721 km
Semi-major axis
7,139.617 km
Eccentricity
0.01705
Inclination
98.4704°
RAAN
263.9619°
Arg. of periapsis
89.8598°
True anomaly
270.25898°
Mean anomaly
272.213°
Eccentric anomaly
271.23611°
Mean motion
3.59775 °/min
Orbital period
100.06 mins
BSTAR
0.00020205
Loading maneuver chart data...
Computing Atmospheric mass density...

Documentation

Showing up to 5 results
|